| time (UTC) | temp F | wind direction | speed MPH | gust MPH | rain 1hr in | rain 24hr in | rain mn in | humidity % | barometer mb |
| 20260510135528 | 78 | 90 | 0.0 | 0.0 | 0.00 | 0.02 | 0.00 | 89 | 1015.1 |
| 20260510134528 | 78 | 90 | 0.0 | 0.0 | 0.00 | 0.02 | 0.00 | 88 | 1015.2 |
| 20260510133528 | 78 | 90 | 0.0 | 0.0 | 0.00 | 0.02 | 0.00 | 89 | 1014.9 |
| 20260510131628 | 77 | 67 | 0.0 | 0.0 | 0.00 | 0.02 | 0.00 | 91 | 1014.6 |
| 20260510130727 | 77 | 112 | 0.0 | 0.0 | 0.00 | 0.02 | 0.00 | 92 | 1014.4 |
| 20260510125729 | 76 | 112 | 0.0 | 0.0 | 0.00 | 0.02 | 0.00 | 91 | 1014.1 |
| 20260510124729 | 76 | 112 | 0.0 | 0.0 | 0.00 | 0.02 | 0.00 | 91 | 1014.1 |
| 20260510123728 | 76 | 180 | 0.0 | 0.0 | 0.00 | 0.02 | 0.00 | 92 | 1013.8 |
| 20260510122728 | 76 | 180 | 0.0 | 0.0 | 0.00 | 0.02 | 0.00 | 91 | 1013.7 |
| 20260510121731 | 76 | 180 | 0.0 | 0.0 | 0.00 | 0.02 | 0.00 | 92 | 1013.5 |
| 20260510114829 | 76 | 202 | 0.0 | 0.0 | 0.00 | 0.02 | 0.00 | 93 | 1013.0 |
| 20260510113829 | 76 | 202 | 0.0 | 1.0 | 0.00 | 0.02 | 0.00 | 92 | 1012.7 |
| 20260510111827 | 76 | 202 | 0.0 | 0.0 | 0.00 | 0.02 | 0.00 | 93 | 1012.5 |
| 20260510105832 | 76 | 225 | 0.0 | 0.0 | 0.00 | 0.02 | 0.00 | 93 | 1012.3 |
| 20260510104928 | 75 | 225 | 0.0 | 2.0 | 0.00 | 0.02 | 0.00 | 93 | 1012.2 |
| 20260510103929 | 75 | 225 | 0.0 | 0.0 | 0.00 | 0.02 | 0.00 | 93 | 1012.0 |
| 20260510101927 | 75 | 225 | 0.0 | 2.0 | 0.00 | 0.02 | 0.00 | 93 | 1011.7 |
| 20260510100929 | 75 | 226 | 1.0 | 2.0 | 0.00 | 0.02 | 0.00 | 94 | 1011.7 |
| 20260510100028 | 75 | 225 | 0.0 | 1.0 | 0.00 | 0.02 | 0.00 | 94 | 1011.7 |
| 20260510095127 | 75 | 225 | 0.0 | 1.0 | 0.00 | 0.02 | 0.00 | 93 | 1011.7 |
| 20260510092129 | 75 | 205 | 0.0 | 2.0 | 0.00 | 0.02 | 0.00 | 95 | 1011.8 |
| 20260510091131 | 74 | 212 | 0.0 | 2.0 | 0.00 | 0.02 | 0.00 | 95 | 1011.8 |
| 20260510090128 | 74 | 202 | 0.0 | 0.0 | 0.00 | 0.02 | 0.00 | 96 | 1011.7 |
| 20260510084128 | 74 | 225 | 0.0 | 1.0 | 0.00 | 0.02 | 0.00 | 96 | 1011.8 |
| 20260510084029 | 74 | 225 | 0.0 | 1.0 | 0.00 | 0.02 | 0.00 | 96 | 1011.8 |
| 20260510083028 | 74 | 225 | 0.0 | 0.0 | 0.00 | 0.02 | 0.00 | 95 | 1011.7 |
| 20260510082929 | 74 | 225 | 0.0 | 0.0 | 0.00 | 0.02 | 0.00 | 94 | 1011.6 |
| 20260510080928 | 74 | 225 | 0.0 | 0.0 | 0.00 | 0.02 | 0.00 | 95 | 1011.8 |
| 20260510074928 | 74 | 225 | 0.0 | 1.0 | 0.00 | 0.02 | 0.00 | 94 | 1011.6 |
| 20260510073928 | 74 | 225 | 0.0 | 0.0 | 0.00 | 0.02 | 0.00 | 94 | 1011.6 |
| 20260510072930 | 74 | 225 | 0.0 | 1.0 | 0.00 | 0.02 | 0.00 | 94 | 1011.6 |
| 20260510071929 | 74 | 206 | 0.0 | 1.0 | 0.00 | 0.02 | 0.00 | 93 | 1011.5 |
| 20260510071028 | 74 | 225 | 0.0 | 0.0 | 0.00 | 0.02 | 0.00 | 93 | 1011.5 |
| 20260510065128 | 74 | 202 | 0.0 | 1.0 | 0.00 | 0.02 | 0.00 | 91 | 1011.6 |
| 20260510064128 | 74 | 182 | 0.0 | 1.0 | 0.00 | 0.02 | 0.00 | 92 | 1011.6 |
| 20260510063129 | 74 | 216 | 0.0 | 1.0 | 0.00 | 0.02 | 0.00 | 92 | 1011.7 |
| 20260510062127 | 75 | 225 | 0.0 | 1.0 | 0.00 | 0.02 | 0.00 | 93 | 1011.8 |
| 20260510054230 | 75 | 225 | 0.0 | 1.0 | 0.00 | 0.02 | 0.00 | 93 | 1012.0 |
| 20260510051229 | 75 | 169 | 0.0 | 4.0 | 0.00 | 0.02 | 0.00 | 93 | 1012.3 |
| 20260510050228 | 76 | 212 | 0.0 | 0.0 | 0.00 | 0.02 | 0.00 | 93 | 1012.4 |
| 20260510045237 | 76 | 103 | 0.0 | 4.0 | 0.00 | 0.02 | 0.02 | 94 | 1012.5 |
| 20260510044334 | 76 | 58 | 0.0 | 2.0 | 0.00 | 0.02 | 0.02 | 93 | 1012.6 |
| 20260510043336 | 76 | 72 | 0.0 | 2.0 | 0.01 | 0.02 | 0.02 | 94 | 1012.7 |
| 20260510042434 | 76 | 63 | 0.0 | 1.0 | 0.01 | 0.02 | 0.02 | 94 | 1012.8 |
| 20260510035435 | 76 | 135 | 0.0 | 0.0 | 0.02 | 0.02 | 0.02 | 93 | 1013.0 |
| 20260510034437 | 76 | 45 | 0.0 | 1.0 | 0.02 | 0.02 | 0.02 | 92 | 1012.7 |
| 20260510033535 | 76 | 174 | 0.0 | 0.0 | 0.02 | 0.02 | 0.02 | 92 | 1012.5 |
| 20260510032536 | 77 | 166 | 0.0 | 2.0 | 0.01 | 0.01 | 0.01 | 91 | 1012.3 |
| 20260510031535 | 77 | 67 | 0.0 | 3.0 | 0.01 | 0.01 | 0.00 | 90 | 1012.9 |
| 20260510030536 | 78 | 187 | 0.0 | 1.0 | 0.00 | 0.00 | 0.00 | 90 | 1012.9 |
| 20260510025536 | 78 | 83 | 0.0 | 2.0 | 0.00 | 0.00 | 0.00 | 89 | 1012.7 |
| 20260510024635 | 78 | 15 | 1.0 | 2.0 | 0.00 | 0.00 | 0.00 | 89 | 1012.4 |
| 20260510021734 | 78 | 132 | 0.0 | 2.0 | 0.00 | 0.00 | 0.00 | 86 | 1011.9 |
| 20260510020736 | 79 | 115 | 0.0 | 4.0 | 0.00 | 0.00 | 0.00 | 85 | 1011.6 |
| 20260510015736 | 80 | 66 | 0.0 | 2.0 | 0.00 | 0.00 | 0.00 | 80 | 1011.1 |
| 20260510013735 | 81 | 225 | 0.0 | 1.0 | 0.00 | 0.00 | 0.00 | 73 | 1010.5 |
| 20260510012736 | 81 | 131 | 0.0 | 0.0 | 0.00 | 0.00 | 0.00 | 70 | 1010.4 |
| 20260510010835 | 82 | 222 | 1.0 | 2.0 | 0.00 | 0.00 | 0.00 | 67 | 1009.7 |
| 20260510005836 | 83 | 220 | 0.0 | 2.0 | 0.00 | 0.00 | 0.00 | 63 | 1009.4 |
| 20260510004033 | 83 | 209 | 0.0 | 0.0 | 0.00 | 0.00 | 0.00 | 68 | 1009.3 |
| 20260510003037 | 84 | 205 | 0.0 | 1.0 | 0.00 | 0.00 | 0.00 | 66 | 1009.3 |
| 20260510002036 | 84 | 199 | 0.0 | 1.0 | 0.00 | 0.00 | 0.00 | 63 | 1009.2 |
| 20260510001036 | 84 | 125 | 0.0 | 0.0 | 0.00 | 0.00 | 0.00 | 62 | 1009.4 |
| 20260510000037 | 84 | 90 | 0.0 | 0.0 | 0.00 | 0.00 | 0.00 | 64 | 1009.0 |
| 20260509234035 | 85 | 90 | 0.0 | 0.0 | 0.00 | 0.00 | 0.00 | 68 | 1009.0 |
| 20260509231134 | 86 | 202 | 0.0 | 0.0 | 0.00 | 0.00 | 0.00 | 68 | 1008.9 |
| 20260509230136 | 86 | 87 | 0.0 | 1.0 | 0.00 | 0.00 | 0.00 | 68 | 1008.9 |
| 20260509225136 | 86 | 140 | 0.0 | 2.0 | 0.00 | 0.00 | 0.00 | 70 | 1008.7 |
| 20260509224135 | 86 | 82 | 0.0 | 3.0 | 0.00 | 0.00 | 0.00 | 70 | 1008.6 |
| 20260509223136 | 87 | 135 | 0.0 | 0.0 | 0.00 | 0.00 | 0.00 | 68 | 1008.8 |
| 20260509222234 | 87 | 123 | 0.0 | 4.0 | 0.00 | 0.00 | 0.00 | 67 | 1008.8 |
| 20260509221234 | 87 | 73 | 0.0 | 1.0 | 0.00 | 0.00 | 0.00 | 66 | 1008.5 |
| 20260509220236 | 89 | 174 | 0.0 | 0.0 | 0.00 | 0.00 | 0.00 | 62 | 1008.6 |
| 20260509215335 | 90 | 220 | 0.0 | 3.0 | 0.00 | 0.00 | 0.00 | 60 | 1008.4 |
| 20260509214336 | 91 | 255 | 0.0 | 1.0 | 0.00 | 0.00 | 0.00 | 57 | 1008.5 |
| 20260509213336 | 92 | 54 | 0.0 | 3.0 | 0.00 | 0.00 | 0.00 | 56 | 1008.5 |
| 20260509212336 | 93 | 179 | 0.0 | 0.0 | 0.00 | 0.00 | 0.00 | 56 | 1008.4 |
| 20260509211335 | 94 | 225 | 0.0 | 2.0 | 0.00 | 0.00 | 0.00 | 53 | 1008.4 |
| 20260509210335 | 94 | 205 | 1.0 | 3.0 | 0.00 | 0.00 | 0.00 | 51 | 1008.4 |
| 20260509205337 | 94 | 32 | 0.0 | 1.0 | 0.00 | 0.00 | 0.00 | 46 | 1008.6 |
| 20260509203337 | 92 | 152 | 0.0 | 0.0 | 0.00 | 0.00 | 0.00 | 54 | 1008.8 |
| 20260509202336 | 92 | 122 | 0.0 | 0.0 | 0.00 | 0.00 | 0.00 | 56 | 1008.8 |
| 20260509201334 | 91 | 49 | 0.0 | 0.0 | 0.00 | 0.00 | 0.00 | 51 | 1009.0 |
| 20260509200434 | 91 | 90 | 0.0 | 0.0 | 0.00 | 0.00 | 0.00 | 51 | 1009.2 |
| 20260509195434 | 92 | 225 | 0.0 | 0.0 | 0.00 | 0.00 | 0.00 | 51 | 1009.3 |
| 20260509193437 | 91 | 67 | 0.0 | 0.0 | 0.00 | 0.00 | 0.00 | 53 | 1009.3 |
| 20260509192435 | 89 | 121 | 0.0 | 0.0 | 0.00 | 0.00 | 0.00 | 54 | 1009.3 |
| 20260509191535 | 90 | 121 | 0.0 | 0.0 | 0.00 | 0.00 | 0.00 | 55 | 1009.4 |
| 20260509190534 | 90 | 209 | 0.0 | 2.0 | 0.00 | 0.00 | 0.00 | 54 | 1009.5 |
| 20260509185536 | 90 | 198 | 0.0 | 0.0 | 0.00 | 0.00 | 0.00 | 57 | 1009.7 |
| 20260509184634 | 90 | 33 | 1.0 | 2.0 | 0.00 | 0.00 | 0.00 | 59 | 1009.7 |
| 20260509183636 | 89 | 247 | 0.0 | 0.0 | 0.00 | 0.00 | 0.00 | 60 | 1009.7 |
| 20260509182637 | 88 | 187 | 0.0 | 0.0 | 0.00 | 0.00 | 0.00 | 63 | 1010.2 |
| 20260509181634 | 88 | 202 | 1.0 | 3.0 | 0.00 | 0.00 | 0.00 | 66 | 1010.3 |
| 20260509180637 | 86 | 225 | 0.0 | 1.0 | 0.00 | 0.00 | 0.00 | 70 | 1010.4 |
| 20260509173636 | 83 | 225 | 0.0 | 0.0 | 0.00 | 0.00 | 0.00 | 76 | 1011.2 |
| 20260509171733 | 82 | 225 | 0.0 | 1.0 | 0.00 | 0.00 | 0.00 | 78 | 1011.2 |
| 20260509170736 | 83 | 202 | 0.0 | 1.0 | 0.00 | 0.00 | 0.00 | 78 | 1011.2 |
| 20260509165734 | 83 | 202 | 0.0 | 2.0 | 0.00 | 0.00 | 0.00 | 78 | 1011.3 |
| 20260509164738 | 83 | 206 | 0.0 | 2.0 | 0.00 | 0.00 | 0.00 | 78 | 1011.4 |
| 20260509163834 | 83 | 225 | 0.0 | 1.0 | 0.00 | 0.00 | 0.00 | 77 | 1011.4 |
| 20260509162834 | 83 | 202 | 1.0 | 3.0 | 0.00 | 0.00 | 0.00 | 78 | 1011.2 |
| 20260509161833 | 82 | 180 | 1.0 | 2.0 | 0.00 | 0.00 | 0.00 | 79 | 1011.1 |
| 20260509160836 | 82 | 112 | 0.0 | 0.0 | 0.00 | 0.00 | 0.00 | 81 | 1011.2 |
| 20260509155934 | 82 | 43 | 0.0 | 1.0 | 0.00 | 0.00 | 0.00 | 82 | 1011.2 |
| 20260509154936 | 81 | 202 | 0.0 | 0.0 | 0.00 | 0.00 | 0.00 | 83 | 1011.4 |
| 20260509154034 | 80 | 202 | 0.0 | 0.0 | 0.00 | 0.00 | 0.00 | 85 | 1011.1 |
| 20260509153037 | 79 | 105 | 0.0 | 1.0 | 0.00 | 0.00 | 0.00 | 87 | 1010.6 |
| 20260509152134 | 78 | 225 | 0.0 | 0.0 | 0.00 | 0.00 | 0.00 | 88 | 1010.9 |
| 20260509151034 | 78 | 225 | 0.0 | 0.0 | 0.00 | 0.00 | 0.00 | 88 | 1010.9 |
| 20260509150036 | 78 | 173 | 0.0 | 0.0 | 0.00 | 0.00 | 0.00 | 87 | 1010.6 |
| 20260509145034 | 78 | 180 | 0.0 | 0.0 | 0.00 | 0.00 | 0.00 | 88 | 1011.1 |
| 20260509144133 | 78 | 180 | 0.0 | 0.0 | 0.00 | 0.00 | 0.00 | 88 | 1011.2 |
| 20260509143134 | 78 | 201 | 0.0 | 0.0 | 0.00 | 0.00 | 0.00 | 89 | 1011.2 |